Location: Jeseník
(50.2246°N, 17.1980°E)
Time: 04:58:42
(UTC+01:00)

Envisat - Visible Passes

Search period start: 28 February 2024 00:00
Search period end: 09 March 2024 00:00
Orbit: 762 x 764 km, 98.3° (Epoch: 27 February)

Date Brightness Start Highest point End Pass type
(mag) Time Alt. Az. Time Alt. Az. Time Alt. Az.
28 Feb 4.9 02:38:17 10° NNE 02:41:16 27° ENE 02:41:16 27° ENE visible
28 Feb 3.5 04:17:10 10° N 04:21:27 40° NW 04:21:27 40° NW visible
29 Feb 5.6 02:01:59 10° NE 02:03:41 15° ENE 02:03:41 15° ENE visible
29 Feb 3.2 03:39:39 10° NNE 03:43:51 60° N 03:43:51 60° N visible
29 Feb 4.6 05:20:06 10° NNW 05:22:57 15° NW 05:24:01 14° WNW visible
01 Mar 4.0 03:02:25 10° NNE 03:06:15 43° ENE 03:06:15 43° ENE visible
01 Mar 4.0 04:41:53 10° N 04:46:07 27° WNW 04:46:26 27° WNW visible
02 Mar 5.0 02:25:36 10° NE 02:28:40 24° ENE 02:28:40 24° ENE visible
02 Mar 3.2 04:04:10 10° N 04:08:50 51° WNW 04:08:50 51° WNW visible
02 Mar 5.0 05:46:29 10° NW 05:46:56 10° NW 05:47:24 10° NW visible
03 Mar 5.8 01:49:50 10° ENE 01:51:04 12° ENE 01:51:04 12° ENE visible
03 Mar 3.2 03:26:44 10° NNE 03:31:15 69° NE 03:31:15 69° NE visible
03 Mar 4.4 05:06:48 10° NNW 05:10:13 19° NW 05:11:25 17° WNW visible
04 Mar 4.2 02:49:37 10° NNE 02:53:39 38° ENE 02:53:39 38° ENE visible
04 Mar 3.7 04:28:48 10° N 04:33:19 33° WNW 04:33:49 33° WNW visible
05 Mar 5.2 02:13:02 10° NE 02:16:03 20° ENE 02:16:03 20° ENE visible
05 Mar 2.9 03:51:11 10° N 03:56:13 64° WNW 03:56:13 64° WNW visible
05 Mar 4.9 05:32:10 10° NNW 05:34:15 13° NW 05:36:21 10° WNW visible
06 Mar 3.3 03:13:51 10° NNE 03:18:38 63° E 03:18:38 63° E visible
06 Mar 4.2 04:53:35 10° N 04:57:29 23° WNW 04:58:48 20° W visible
07 Mar 4.5 02:36:53 10° NNE 02:41:02 32° E 02:41:02 32° E visible
07 Mar 3.4 04:15:45 10° N 04:20:30 41° WNW 04:21:13 39° W visible
08 Mar 5.4 02:00:36 10° NE 02:03:27 16° E 02:03:27 16° E visible
08 Mar 2.8 03:38:13 10° NNE 03:43:20 81° WNW 03:43:37 77° WSW visible
08 Mar 4.7 05:18:40 10° NNW 05:21:33 15° NW 05:23:47 12° W visible
